Location: Ełk
(53.8214°N, 22.3622°E)
Time: 15:26:20
(UTC+01:00)

ISS - Pass Details

Date: 28 January 2019
Orbit: 403 x 411 km, 51.6° (Epoch: 16 February)

Event Time Altitude Azimuth Distance (km) Brightness Sun altitude
Rises 17:32:51 0° 236° (SW) 2,329 1.4 -13.0°
Reaches altitude 10° 17:35:01 10° 227° (SW) 1,472 0.0 -13.3°
Maximum altitude 17:38:04 36° 160° (SSE) 674 -2.8 -13.8°
Enters shadow 17:39:29 24° 111° (ESE) 908 -2.5 -14.0°
